Meteo Giornale » Osservazioni meteo Italia » Falconara

ore: 20:20 - Osservazioni Meteo Falconara
Lat. 43° 37' N Lon. 13° 22' E Alt. 12 metri s.l.m.

sereno

27 °C

Sereno

Temp. 24 Ore

21 °C

29 °C

Nord

1.8 Km/h

Dew point 21 °C

Umidità 69 %

Visibilità  10 Km

Il sole sorge alle ore 06:29

Il sole tramonta alle ore 19:44

Data e Ora Cielo e Fenomeni T °C DP °C Um. % Pres. hPa Vis. km Vento km/h
Oggi h: 20:20 sereno Sereno 27 21 69 1013 10 N 1.8
Oggi h: 19:50 sereno Sereno 27 22 74 1013 10 N 5.5
Oggi h: 19:20 sereno Sereno 28 21 65 1013 10 E/NE 7.4
Oggi h: 18:50 sereno Sereno 28 22 69 1013 10 E/NE 9.3
Oggi h: 17:50 sereno Sereno 29 21 62 1014 10 NE 11.1
Oggi h: 17:20 sereno Sereno 29 22 66 1014 10 NE 11.1
Oggi h: 16:50 sereno Sereno 29 22 66 1014 10 NE 13
Oggi h: 09:20 sereno Sereno 28 19 58 1014 10 N 5.5
Oggi h: 08:50 sereno Sereno 27 17 54 1014 10 N 5.5
Oggi h: 08:20 sereno Sereno 25 17 61 1014 10 N 5.5
Oggi h: 07:50 sereno Sereno 23 17 68 1014 10 N 5.5
Oggi h: 07:20 sereno Sereno 22 17 73 1014 10 S/SO 7.4
Oggi h: 06:50 sereno Sereno 21 16 73 1014 10 N 5.5
Oggi h: 06:20 sereno Sereno 21 16 73 1014 10 N 5.5
Oggi h: 05:50 sereno Sereno 22 16 68 1014 10 N 5.5
Oggi h: 05:20 sereno Sereno 21 16 73 1013 10 N 5.5
Oggi h: 04:50 sereno Sereno 21 16 73 1014 10 N 3.7
Oggi h: 04:20 sereno Sereno 22 15 64 1013 10 S/SO 7.4
Oggi h: 03:50 sereno Sereno 22 15 64 1014 10 N 5.5
Oggi h: 03:20 sereno Sereno 22 16 68 1014 10 N 5.5
Oggi h: 02:50 sereno Sereno 22 15 64 1014 10 N 3.7
Oggi h: 02:20 sereno Sereno 23 15 60 1014 10 N 5.5
Oggi h: 01:50 sereno Sereno 23 15 60 1014 10 N 5.5
Oggi h: 01:20 sereno Sereno 23 15 60 1014 10 N 5.5
Oggi h: 00:50 sereno Sereno 23 15 60 1014 10 N 5.5
Oggi h: 00:20 sereno Sereno 23 15 60 1014 10 S 7.4
Ieri h: 23:50 sereno Sereno 22 15 64 1014 10 N 5.5
Ieri h: 23:20 sereno Sereno 24 16 60 1014 10 N 5.5
Ieri h: 22:50 sereno Sereno 24 16 60 1014 10 N 5.5
Ieri h: 22:20 sereno Sereno 25 16 57 1014 10 N 5.5
Ieri h: 21:50 poco_nuvoloso Poco Nuvoloso 25 16 57 1014 10 N 5.5
Ieri h: 21:20 sereno Sereno 25 18 65 1014 10 N 5.5
Ieri h: 20:50 poco_nuvoloso Poco Nuvoloso 25 20 73 1014 10 N 3.7